Location: Dreilärchen
(47.9312°N, 8.6113°E)
Time: 19:54:15
(UTC+00:00)

Cosmos 1269 Rocket - Pass Details

Date: 26 May 2022
Orbit: 773 x 778 km, 74.1° (Epoch: 02 July)

Event Time Altitude Azimuth Distance (km) Brightness Sun altitude
Rises 00:43:12 0° 338° (NNW) 3,261 8.0 -18.6°
Reaches altitude 10° 00:45:36 10° 340° (NNW) 2,329 7.2 -18.5°
Maximum altitude 00:50:54 75° 66° (ENE) 806 4.2 -18.2°
Enters shadow 00:55:09 16° 151° (SSE) 1,935 5.7 -17.9°
